Temp
65 64 64 65 65 66 66 64 66 67 67 68 67 67 69 69 70 69 70 71 72 73 73 74 74 74 71 70 68 67 67 66 65 62 64 66 65 66 73 75 76 78 82 81 81 78 77 73 75 79 82 80 79 78 78 79 80 79 76 77 80 81 80
65 65 66 66 66 65 63 65 66 67 67 67 67 66 67 69 69 70 69 70 71 72 72 73 73 74 73 71 68 65 65 65 64 64 64 64 65 65 68 70 74 77 79 79 81 81 78 75 75 76 74 78 77 77 77 78 80 79 78 78 81 82 79
63 64 65 64 64 64 63 63 65 66 68 67 67 67 66 66 67 69 69 69 70 71 70 72 72 72 71 72 71 69 67 66 65 65 63 64 64 65 66 68 69 71 74 76 76 76 77 77 75 78 74 72 69 74 76 76 77 79 79 78 78 81 82
60 60 62 61 63 63 61 61 63 65 66 66 66 65 65 65 65 66 67 69 69 69 71 72 71 73 72 72 71 71 69 67 66 64 63 65 64 64 64 64 64 67 70 72 73 75 74 73 75 74 77 77 74 72 74 77 77 80 81 79 79 79 81
59 60 60 59 61 60 60 61 63 64 64 66 66 66 65 65 64 65 65 66 67 69 70 71 71 72 73 73 73 71 69 69 67 65 64 63 64 64 65 64 63 65 69 72 76 76 75 75 75 74 77 80 79 78 79 76 79 79 81 82 83 80 82
61 60 60 60 61 61 62 61 60 62 63 63 65 63 64 63 64 63 63 64 65 67 69 71 71 72 72 72 72 71 70 68 68 67 65 64 65 65 64 65 65 64 65 71 75 77 77 76 74 72 79 83 76 78 80 77 75 79 81 82 82 84 84
62 61 61 61 61 62 62 62 61 61 61 60 61 62 62 63 64 63 63 63 64 65 66 67 69 71 71 73 72 72 71 70 70 68 68 67 67 67 68 66 65 65 67 70 73 72 74 74 72 73 73 79 79 80 82 80 80 76 80 83 83 83 82
63 63 63 62 62 61 62 60 60 60 60 61 61 62 61 60 60 61 61 62 63 63 64 65 67 69 70 70 71 71 71 71 70 69 70 69 68 67 66 67 66 66 66 70 71 72 73 74 75 74 73 71 74 76 77 81 79 78 77 78 79 78 76
61 61 62 61 62 61 60 60 60 61 61 63 62 61 61 60 59 59 60 60 62 62 62 64 65 66 68 69 71 70 70 72 71 70 68 68 68 68 68 68 66 65 65 66 69 72 76 76 77 76 75 74 73 71 74 75 77 78 81 76 76 77 76
60 60 61 60 59 60 60 60 61 62 61 61 61 62 60 60 59 59 59 59 60 60 61 63 64 65 66 67 68 70 70 72 72 71 71 70 71 71 70 69 68 65 64 64 66 69 71 73 76 76 79 77 76 74 72 71 73 75 78 78 72 76 78
61 60 61 60 60 60 61 60 61 60 61 62 61 61 61 59 58 58 59 59 59 59 59 60 61 63 64 66 67 68 71 72 71 71 72 70 69 70 69 70 70 70 68 65 64 66 68 69 70 72 77 80 78 75 74 73 73 77 77 76 75 75 78
61 61 61 61 60 60 59 60 60 61 60 61 60 61 59 59 58 58 58 58 57 57 58 59 60 61 62 63 64 66 69 71 71 71 72 71 71 70 70 70 71 69 70 68 66 65 65 65 66 69 69 78 78 76 75 75 72 77 79 74 77 78 73
62 61 61 60 59 60 59 60 60 60 61 61 61 60 59 58 58 57 57 57 56 57 57 58 60 60 62 62 64 65 67 69 70 71 72 72 72 71 71 70 70 69 70 70 69 68 66 65 66 65 67 70 78 78 77 75 73 74 78 78 77 76 74
60 61 61 60 59 59 60 60 59 59 60 59 59 58 58 58 57 56 56 56 56 56 56 56 58 58 59 61 63 65 66 67 68 70 71 72 73 73 72 72 71 71 72 70 69 69 69 69 66 65 66 67 73 78 77 74 72 74 77 79 78 75 74
61 62 60 60 59 60 61 59 59 58 57 57 58 58 58 57 56 55 55 55 55 56 56 56 57 58 57 57 58 62 64 66 66 67 69 72 73 73 72 71 72 73 73 69 72 71 70 70 68 65 64 65 70 77 78 76 75 75 71 73 75 75 73
61 60 59 60 59 60 60 59 59 57 57 57 58 57 56 56 55 55 55 54 54 54 55 55 55 55 56 56 56 58 60 63 64 65 67 70 73 74 73 72 71 72 71 71 71 70 70 69 69 66 65 65 67 73 75 78 77 75 69 68 71 70 69
60 60 59 60 60 61 59 59 59 58 58 57 56 56 56 56 55 54 53 53 53 53 53 53 54 55 55 56 56 56 57 59 62 64 65 68 70 71 72 72 72 72 71 69 70 70 72 71 69 67 65 65 67 71 72 75 76 77 72 67 70 70 70
59 59 59 60 60 59 59 59 59 58 57 55 55 54 54 55 54 53 52 53 53 52 52 53 53 53 54 55 55 56 56 57 59 61 64 66 65 69 71 72 72 74 72 70 68 65 68 68 70 69 68 67 66 72 74 75 75 77 71 69 68 71 69
59 59 59 60 58 59 59 59 58 56 55 54 54 54 54 54 53 53 52 52 52 52 52 52 52 52 53 53 54 55 56 57 58 60 61 64 67 69 70 72 72 73 73 71 68 68 67 69 71 71 69 66 67 72 73 75 73 74 73 69 68 66 68
59 59 58 58 58 59 59 57 56 56 56 55 54 54 54 54 53 52 52 53 52 52 52 52 52 52 52 53 53 54 55 57 58 59 61 63 66 68 70 71 71 72 72 73 71 70 68 66 68 71 69 67 67 70 72 72 74 73 73 67 68 68 67
59 59 58 58 58 57 56 56 56 57 57 56 54 54 53 52 53 53 52 52 52 52 52 52 52 52 52 52 52 53 54 55 57 59 61 63 64 66 68 70 72 73 73 73 72 72 69 67 72 71 69 67 66 69 70 70 72 75 73 69 69 68 68
60 59 58 57 56 55 55 55 56 56 56 55 54 54 53 53 53 52 52 52 52 52 52 51 52 52 52 52 53 52 53 54 55 57 60 62 64 66 68 70 72 73 71 65 61 62 63 61 68 70 69 68 65 67 69 67 64 72 71 69 68 68 67
59 58 56 54 55 55 55 55 55 55 55 55 54 54 53 53 52 51 50 51 51 50 50 51 50 47 47 51 53 54 54 55 55 56 58 61 64 66 67 70 69 62 59 58 55 53 53 54 55 65 71 68 65 65 67 66 64 67 69 69 68 67 65
59 56 54 53 54 55 56 55 55 55 54 53 53 53 52 52 51 51 50 50 50 50 50 51 46 44 44 44 49 52 53 54 56 56 58 60 62 65 67 70 71 66 62 59 60 50 51 51 52 52 54 58 59 63 63 66 68 69 68 68 67 66 66
56 54 54 54 54 55 55 55 54 53 52 52 52 52 51 51 51 51 50 50 49 49 50 47 44 44 43 43 44 49 51 52 54 56 58 60 62 65 67 68 70 71 71 71 73 67 56 50 49 49 50 51 51 53 55 64 68 70 69 68 66 67 66
56 54 54 55 55 56 56 54 53 51 51 51 51 50 50 50 50 50 50 49 49 50 50 47 44 43 43 42 42 44 49 50 51 54 56 58 61 64 66 67 69 70 71 60 65 73 72 65 50 47 49 51 51 50 49 51 54 67 71 70 66 65 66
54 54 53 54 55 55 54 52 51 51 50 50 49 49 48 48 48 48 49 48 48 49 49 47 44 43 43 42 41 42 49 49 50 53 56 58 58 62 66 67 68 69 71 70 71 72 73 71 67 61 59 58 60 55 48 47 48 50 57 68 66 66 66
54 53 53 54 54 53 52 51 50 50 49 48 48 47 46 46 47 47 48 48 47 47 48 45 43 43 42 42 41 41 48 48 49 51 54 57 58 58 64 67 68 69 71 70 71 70 72 72 68 64 62 60 61 61 61 60 60 61 64 68 70 71 67
53 53 54 54 53 52 51 50 48 48 47 47 47 47 46 46 45 46 47 48 47 47 48 44 43 42 42 41 41 45 47 48 48 49 52 56 59 60 61 64 67 69 70 70 63 53 59 70 69 65 62 59 57 53 48 44 46 50 59 64 66 65 62
53 53 53 53 52 51 50 49 48 49 47 46 46 46 45 45 46 46 46 47 46 46 48 46 43 42 42 41 42 47 47 47 48 49 51 53 57 59 60 64 66 69 70 70 59 49 50 56 69 65 62 58 55 51 48 47 41 41 40 41 41 41 42
53 53 54 52 51 50 49 49 50 49 47 46 46 46 46 46 46 46 45 45 46 45 46 46 43 42 42 41 43 47 47 47 48 49 50 53 55 58 60 55 60 67 69 70 50 46 46 57 66 65 60 55 51 48 47 48 47 42 40 40 40 40 41
54 53 53 52 50 48 48 49 50 50 48 47 46 46 46 45 45 45 45 45 45 44 45 45 43 42 42 42 43 46 47 47 47 48 50 52 54 56 59 58 54 58 64 62 43 46 45 58 67 63 60 56 53 49 47 49 45 44 44 45 47 46 44
54 53 53 51 50 49 50 50 49 48 47 47 45 46 46 44 43 44 45 45 45 45 44 46 46 43 42 42 42 46 47 46 46 48 50 52 54 56 58 62 59 49 48 45 42 44 45 51 65 62 60 58 56 52 50 49 46 44 44 45 45 45 46
54 53 53 51 50 49 49 49 49 47 46 46 46 45 44 44 43 44 45 45 44 45 45 46 47 43 42 42 41 42 46 47 49 49 51 51 54 57 59 62 63 52 46 42 43 42 45 47 51 62 60 59 58 50 47 46 44 42 44 44 44 44 44
55 54 54 52 50 47 48 49 48 47 47 46 44 43 43 42 42 43 44 44 44 43 44 43 45 44 42 42 41 41 44 47 50 51 51 54 56 58 59 60 60 49 40 41 42 42 43 45 46 60 60 47 42 41 45 44 44 44 43 44 44 43 44
54 54 53 52 49 45 46 46 46 46 46 44 42 41 41 41 41 42 43 43 43 42 42 43 41 42 42 41 42 41 41 45 45 50 52 54 55 55 58 59 57 41 40 40 41 41 43 42 47 54 40 39 40 40 41 42 41 43 44 45 45 43 42
55 55 54 52 49 45 44 45 45 45 45 43 41 40 40 40 41 41 41 41 41 41 41 42 41 40 42 41 41 41 40 41 44 49 52 54 57 57 57 59 52 39 40 40 40 41 41 44 47 38 40 39 39 41 43 41 42 43 43 45 45 44 43
MSLP
1019.02 1019.22 1019.26 1019.22 1019.30 1019.22 1019.22 1019.22 1019.02 1018.90 1018.82 1018.78 1018.82 1018.70 1018.42 1018.26 1018.18 1018.06 1017.86 1017.66 1017.58 1017.38 1017.14 1016.86 1016.74 1016.74 1016.98 1017.26 1017.46 1017.54 1017.54 1017.62 1017.94 1018.46 1018.74 1018.66 1019.06 1019.06 1018.34 1018.10 1017.98 1017.74 1017.42 1017.30 1017.26 1017.70 1017.90 1018.30 1018.46 1018.06 1017.66 1017.78 1018.14 1018.58 1018.74 1018.70 1018.74 1019.02 1019.46 1019.54 1019.34 1019.46 1019.58
1018.98 1018.98 1018.98 1019.06 1019.14 1019.22 1019.34 1019.18 1019.02 1018.90 1018.78 1018.66 1018.74 1018.70 1018.58 1018.26 1018.06 1017.98 1017.90 1017.78 1017.46 1017.26 1017.10 1016.90 1016.78 1016.62 1016.66 1016.90 1017.18 1017.46 1017.66 1017.62 1017.58 1017.78 1018.30 1018.38 1018.54 1018.90 1018.86 1018.50 1018.18 1018.06 1017.82 1017.58 1017.34 1017.22 1017.66 1017.90 1017.82 1017.90 1018.54 1018.22 1018.46 1018.50 1018.50 1018.50 1018.46 1018.66 1018.94 1019.26 1019.10 1018.86 1019.06
1019.06 1019.02 1019.02 1019.22 1019.26 1019.26 1019.30 1019.26 1019.06 1018.86 1018.62 1018.54 1018.46 1018.54 1018.58 1018.50 1018.22 1017.94 1017.82 1017.70 1017.54 1017.34 1017.22 1016.94 1016.74 1016.70 1016.66 1016.62 1016.58 1016.82 1017.06 1017.38 1017.50 1017.74 1017.90 1018.02 1018.18 1018.34 1018.54 1018.54 1018.58 1018.42 1018.22 1017.82 1017.58 1017.66 1017.42 1017.30 1017.42 1017.10 1018.06 1018.62 1019.26 1018.54 1018.26 1018.46 1018.50 1018.50 1018.66 1018.82 1019.02 1018.70 1018.58
1019.30 1019.38 1019.18 1019.18 1019.22 1019.34 1019.34 1019.38 1019.22 1018.94 1018.74 1018.62 1018.54 1018.42 1018.50 1018.50 1018.42 1018.22 1017.90 1017.66 1017.50 1017.30 1017.14 1016.94 1016.74 1016.54 1016.38 1016.34 1016.34 1016.38 1016.62 1016.90 1017.18 1017.50 1017.82 1017.82 1017.94 1018.18 1018.26 1018.42 1018.54 1018.54 1018.22 1018.06 1017.66 1017.46 1017.70 1017.58 1017.50 1017.54 1016.90 1017.46 1018.02 1018.50 1018.10 1018.06 1018.22 1018.14 1018.26 1018.38 1018.66 1018.66 1018.34
1019.26 1019.30 1019.30 1019.34 1019.38 1019.46 1019.46 1019.38 1019.10 1018.98 1018.78 1018.58 1018.50 1018.38 1018.30 1018.38 1018.42 1018.26 1018.06 1017.86 1017.54 1017.26 1016.98 1016.74 1016.62 1016.38 1016.18 1016.06 1016.06 1016.10 1016.22 1016.38 1016.62 1017.02 1017.34 1017.58 1017.62 1017.78 1017.90 1018.06 1018.14 1018.14 1018.10 1017.74 1017.10 1017.02 1017.34 1017.26 1017.02 1017.18 1016.90 1016.46 1016.98 1017.06 1017.10 1017.82 1017.86 1017.86 1017.90 1017.98 1018.14 1018.34 1018.26
1019.10 1019.22 1019.26 1019.26 1019.26 1019.30 1019.18 1019.22 1019.18 1018.98 1018.78 1018.58 1018.38 1018.46 1018.46 1018.50 1018.34 1018.26 1018.18 1018.02 1017.74 1017.30 1016.98 1016.70 1016.38 1016.30 1016.18 1016.02 1015.86 1015.78 1015.82 1016.06 1016.22 1016.34 1016.66 1016.86 1017.06 1017.30 1017.34 1017.50 1017.66 1017.82 1017.94 1017.42 1017.02 1016.82 1016.62 1016.78 1017.06 1017.46 1016.26 1015.82 1016.74 1016.70 1016.50 1017.42 1018.02 1017.58 1017.42 1017.54 1017.66 1017.82 1017.98
1018.86 1018.98 1018.98 1018.90 1019.02 1019.02 1019.02 1019.10 1019.06 1018.98 1018.94 1018.94 1018.78 1018.74 1018.62 1018.46 1018.34 1018.18 1018.14 1018.10 1017.98 1017.70 1017.34 1017.02 1016.62 1016.26 1016.02 1015.86 1015.70 1015.54 1015.46 1015.42 1015.58 1015.82 1016.02 1016.18 1016.42 1016.54 1016.62 1016.94 1017.14 1017.30 1017.34 1017.30 1017.02 1017.18 1016.82 1016.82 1016.98 1017.06 1016.82 1015.66 1015.78 1016.30 1015.98 1016.62 1016.98 1017.74 1017.38 1017.14 1017.26 1017.42 1017.70
1018.66 1018.70 1018.70 1018.66 1018.74 1018.90 1018.90 1019.02 1018.98 1018.90 1018.82 1018.70 1018.62 1018.54 1018.70 1018.78 1018.66 1018.50 1018.30 1018.14 1017.98 1017.82 1017.62 1017.26 1016.78 1016.34 1016.02 1015.78 1015.50 1015.26 1015.14 1015.06 1015.22 1015.38 1015.42 1015.54 1015.82 1016.14 1016.26 1016.34 1016.70 1016.94 1016.90 1016.86 1016.90 1016.58 1016.34 1016.14 1016.22 1016.34 1016.62 1016.86 1016.26 1016.38 1016.10 1016.10 1016.58 1017.10 1017.18 1017.42 1017.66 1017.82 1018.22
1018.50 1018.58 1018.54 1018.54 1018.66 1018.78 1018.86 1018.82 1018.74 1018.70 1018.54 1018.46 1018.42 1018.42 1018.46 1018.66 1018.66 1018.54 1018.34 1018.14 1017.90 1017.74 1017.50 1017.18 1016.82 1016.46 1016.02 1015.70 1015.30 1015.06 1014.98 1014.78 1014.74 1014.90 1015.18 1015.26 1015.26 1015.46 1015.66 1015.86 1016.22 1016.30 1016.38 1016.54 1016.54 1016.18 1015.82 1015.58 1015.50 1015.66 1015.86 1016.22 1016.26 1016.78 1016.50 1016.30 1016.14 1016.50 1016.42 1017.74 1018.22 1018.10 1018.30
1018.46 1018.50 1018.46 1018.54 1018.70 1018.66 1018.66 1018.58 1018.46 1018.34 1018.34 1018.30 1018.22 1018.22 1018.26 1018.34 1018.38 1018.34 1018.22 1018.10 1017.86 1017.62 1017.42 1017.14 1016.82 1016.50 1016.10 1015.66 1015.26 1014.90 1014.74 1014.46 1014.38 1014.34 1014.42 1014.38 1014.34 1014.70 1014.98 1015.34 1015.54 1015.78 1016.18 1016.18 1016.22 1016.10 1015.86 1015.70 1015.42 1015.22 1015.02 1015.38 1015.54 1015.74 1016.10 1016.62 1016.26 1016.18 1016.14 1016.62 1017.90 1017.98 1017.98
1018.22 1018.30 1018.34 1018.38 1018.38 1018.38 1018.34 1018.30 1018.22 1018.14 1018.06 1018.02 1018.06 1018.02 1018.10 1018.22 1018.22 1018.18 1018.06 1017.90 1017.78 1017.70 1017.46 1017.22 1016.86 1016.42 1015.98 1015.58 1015.22 1014.78 1014.34 1014.14 1014.10 1013.98 1013.90 1014.02 1014.18 1014.30 1014.46 1014.66 1014.86 1015.14 1015.42 1015.70 1015.62 1015.66 1015.74 1015.58 1015.58 1015.34 1014.90 1014.54 1014.78 1015.34 1015.26 1015.62 1015.74 1015.50 1015.66 1016.26 1017.02 1017.78 1017.98
1017.98 1018.06 1018.06 1018.14 1018.18 1018.18 1018.18 1018.14 1018.06 1018.02 1018.02 1018.02 1017.90 1017.78 1017.90 1017.98 1017.94 1017.90 1017.82 1017.78 1017.70 1017.58 1017.34 1017.02 1016.70 1016.38 1016.06 1015.58 1015.18 1014.74 1014.26 1013.94 1013.74 1013.58 1013.46 1013.50 1013.58 1013.74 1013.90 1014.06 1014.18 1014.46 1014.50 1014.82 1014.98 1015.22 1015.38 1015.46 1015.42 1015.38 1015.74 1014.54 1014.22 1014.50 1014.82 1014.90 1015.34 1014.62 1014.78 1016.06 1016.18 1016.66 1018.14
1017.66 1017.78 1017.82 1017.90 1017.94 1017.94 1017.98 1017.98 1017.90 1017.86 1017.78 1017.70 1017.58 1017.62 1017.74 1017.78 1017.78 1017.74 1017.66 1017.62 1017.50 1017.34 1017.18 1016.90 1016.58 1016.22 1015.82 1015.34 1014.94 1014.50 1013.98 1013.74 1013.50 1013.26 1013.10 1013.02 1013.02 1013.06 1013.18 1013.42 1013.50 1013.54 1013.78 1014.02 1014.26 1014.54 1014.86 1015.02 1015.10 1015.22 1015.30 1015.22 1014.06 1013.98 1014.22 1014.58 1015.06 1014.74 1014.34 1015.02 1015.74 1016.50 1017.30
1017.54 1017.54 1017.58 1017.62 1017.74 1017.78 1017.70 1017.62 1017.78 1017.70 1017.66 1017.62 1017.62 1017.62 1017.54 1017.54 1017.62 1017.62 1017.46 1017.34 1017.22 1017.14 1017.02 1016.82 1016.50 1016.18 1015.82 1015.26 1014.70 1014.26 1013.90 1013.62 1013.30 1012.94 1012.70 1012.62 1012.50 1012.50 1012.58 1012.78 1012.90 1012.90 1013.02 1013.18 1013.26 1013.74 1014.14 1014.34 1014.66 1014.86 1014.94 1014.98 1014.22 1013.78 1013.98 1014.58 1014.98 1014.70 1014.46 1014.50 1014.94 1016.06 1016.82
1017.22 1017.22 1017.30 1017.34 1017.38 1017.30 1017.14 1017.38 1017.46 1017.54 1017.62 1017.54 1017.50 1017.42 1017.34 1017.30 1017.34 1017.38 1017.34 1017.14 1016.94 1016.82 1016.66 1016.50 1016.30 1016.02 1015.74 1015.46 1014.98 1014.38 1013.86 1013.50 1013.18 1012.86 1012.54 1012.22 1012.02 1011.90 1011.94 1012.18 1012.18 1012.26 1012.46 1012.90 1012.62 1012.94 1013.30 1013.66 1014.06 1014.42 1014.62 1014.86 1014.42 1013.58 1013.38 1014.02 1014.30 1014.30 1015.22 1015.30 1015.46 1016.02 1016.82
1016.98 1017.06 1017.14 1017.10 1017.06 1016.94 1016.98 1017.10 1017.14 1017.18 1017.18 1017.14 1017.14 1017.14 1017.10 1017.10 1017.06 1017.02 1016.94 1016.86 1016.74 1016.58 1016.38 1016.22 1016.10 1015.90 1015.58 1015.34 1015.06 1014.58 1013.98 1013.46 1013.10 1012.78 1012.46 1011.98 1011.78 1011.54 1011.50 1011.50 1011.58 1011.70 1011.94 1012.10 1012.30 1012.38 1012.62 1013.02 1013.38 1013.90 1014.18 1014.42 1014.38 1013.70 1013.46 1013.30 1013.66 1014.02 1015.26 1015.82 1015.86 1016.34 1016.70
1016.82 1016.86 1016.86 1016.78 1016.66 1016.54 1016.74 1016.74 1016.70 1016.70 1016.70 1016.74 1016.78 1016.74 1016.74 1016.74 1016.78 1016.78 1016.74 1016.58 1016.38 1016.18 1016.02 1015.94 1015.82 1015.62 1015.30 1015.06 1014.82 1014.54 1014.18 1013.66 1013.06 1012.62 1012.26 1011.90 1011.58 1011.30 1011.10 1011.06 1010.94 1011.18 1011.38 1011.70 1011.86 1012.10 1011.98 1012.22 1012.70 1013.22 1013.70 1013.94 1013.90 1013.54 1013.62 1013.42 1013.30 1013.22 1014.22 1015.38 1015.54 1015.94 1016.34
1016.62 1016.62 1016.66 1016.42 1016.22 1016.42 1016.38 1016.34 1016.30 1016.30 1016.38 1016.46 1016.46 1016.42 1016.30 1016.26 1016.22 1016.26 1016.18 1016.10 1015.98 1015.86 1015.70 1015.46 1015.26 1015.14 1015.02 1014.78 1014.54 1014.22 1013.90 1013.54 1013.06 1012.54 1012.10 1011.66 1011.38 1011.06 1010.66 1010.58 1010.50 1010.42 1010.70 1011.02 1011.22 1011.82 1011.82 1011.70 1011.82 1012.34 1012.70 1013.02 1013.46 1012.74 1012.66 1012.74 1013.10 1013.06 1014.02 1014.78 1015.42 1015.54 1016.18
1016.34 1016.34 1016.26 1016.14 1016.30 1016.22 1016.10 1016.02 1016.02 1016.06 1016.14 1016.14 1016.06 1015.98 1015.94 1015.82 1015.78 1015.70 1015.70 1015.70 1015.62 1015.46 1015.26 1015.10 1014.86 1014.70 1014.58 1014.46 1014.26 1013.98 1013.58 1013.18 1012.74 1012.34 1011.94 1011.50 1011.02 1010.62 1010.42 1010.18 1010.02 1010.02 1009.98 1010.14 1010.34 1010.66 1011.18 1011.18 1011.10 1011.34 1011.78 1012.26 1012.62 1012.26 1012.22 1012.34 1012.86 1012.90 1013.38 1014.50 1014.90 1015.54 1015.98
1016.02 1016.02 1016.10 1016.18 1016.06 1015.94 1015.90 1015.86 1015.86 1015.74 1015.58 1015.42 1015.34 1015.26 1015.26 1015.30 1015.30 1015.30 1015.10 1015.02 1014.90 1014.82 1014.66 1014.50 1014.34 1014.22 1014.10 1013.94 1013.78 1013.54 1013.26 1012.86 1012.38 1011.90 1011.46 1011.14 1010.70 1010.34 1009.98 1009.74 1009.62 1009.54 1009.34 1009.26 1009.46 1009.74 1010.34 1010.82 1010.74 1010.50 1010.82 1011.50 1012.18 1012.06 1011.82 1012.10 1012.30 1012.38 1012.78 1014.18 1014.62 1014.70 1015.38
1015.78 1015.78 1015.90 1015.90 1015.86 1015.86 1015.82 1015.70 1015.50 1015.26 1015.10 1014.98 1014.94 1014.86 1014.82 1014.86 1014.74 1014.70 1014.50 1014.34 1014.14 1014.10 1013.98 1013.78 1013.62 1013.54 1013.50 1013.34 1013.18 1013.02 1012.82 1012.54 1012.10 1011.50 1010.94 1010.54 1010.22 1009.90 1009.58 1009.30 1009.02 1008.82 1008.66 1008.54 1008.70 1008.90 1009.42 1009.98 1009.78 1010.06 1010.26 1010.86 1011.62 1011.78 1011.62 1011.86 1011.78 1011.74 1012.30 1013.54 1013.94 1014.50 1014.90
1015.42 1015.50 1015.62 1015.66 1015.78 1015.74 1015.58 1015.42 1015.18 1014.98 1014.82 1014.66 1014.50 1014.38 1014.34 1014.30 1014.22 1014.06 1013.90 1013.74 1013.54 1013.42 1013.22 1013.02 1012.90 1012.78 1012.78 1012.70 1012.62 1012.42 1012.26 1012.06 1011.74 1011.30 1010.62 1009.98 1009.58 1009.26 1009.06 1008.74 1008.46 1008.22 1008.02 1008.02 1008.18 1008.46 1008.66 1009.22 1009.78 1009.74 1009.86 1010.42 1011.18 1011.34 1011.22 1011.58 1012.26 1011.78 1012.30 1013.10 1013.50 1013.86 1014.58
1015.06 1015.22 1015.50 1015.74 1015.62 1015.38 1015.18 1014.94 1014.70 1014.46 1014.26 1014.10 1014.02 1013.90 1013.78 1013.66 1013.62 1013.54 1013.42 1013.22 1013.10 1012.90 1012.62 1012.30 1012.06 1012.22 1012.38 1012.22 1012.02 1011.78 1011.58 1011.38 1011.22 1010.86 1010.34 1009.58 1008.98 1008.62 1008.42 1008.18 1007.90 1007.86 1007.86 1007.86 1007.98 1008.18 1008.50 1008.82 1009.14 1009.10 1009.18 1009.82 1010.46 1010.94 1010.98 1011.22 1011.82 1011.82 1012.06 1012.58 1012.98 1013.46 1014.26
1014.82 1015.22 1015.54 1015.58 1015.30 1015.02 1014.78 1014.54 1014.34 1014.06 1013.90 1013.78 1013.66 1013.50 1013.38 1013.18 1013.02 1012.86 1012.74 1012.58 1012.46 1012.26 1011.94 1011.58 1011.50 1011.70 1011.82 1012.02 1012.06 1011.62 1011.18 1010.78 1010.58 1010.30 1009.82 1009.14 1008.46 1008.02 1007.74 1007.58 1007.34 1007.34 1007.54 1007.54 1007.74 1007.94 1008.06 1008.46 1008.70 1009.10 1009.38 1009.38 1009.50 1010.18 1010.62 1010.70 1010.82 1010.98 1011.54 1011.98 1012.46 1012.98 1013.46
1014.86 1015.22 1015.26 1015.06 1014.90 1014.70 1014.42 1014.18 1013.98 1013.82 1013.66 1013.50 1013.30 1013.10 1012.94 1012.74 1012.46 1012.26 1012.10 1011.94 1011.74 1011.50 1011.22 1010.98 1011.18 1011.14 1011.30 1011.46 1011.62 1011.50 1011.26 1010.78 1010.14 1009.62 1009.18 1008.62 1008.02 1007.50 1007.18 1006.98 1006.78 1006.62 1006.58 1006.62 1006.74 1007.30 1007.86 1008.10 1008.46 1008.74 1009.02 1009.42 1009.30 1009.46 1009.70 1009.86 1010.14 1010.34 1010.74 1011.50 1011.98 1012.30 1012.78
1014.66 1014.78 1014.74 1014.70 1014.50 1014.22 1013.98 1013.94 1013.82 1013.70 1013.50 1013.26 1013.06 1012.86 1012.54 1012.30 1011.98 1011.70 1011.50 1011.26 1011.02 1010.74 1010.46 1010.30 1010.54 1010.58 1010.70 1010.86 1011.06 1011.26 1010.94 1010.58 1010.18 1009.42 1008.82 1008.22 1007.50 1006.94 1006.58 1006.42 1006.22 1006.02 1005.94 1006.22 1006.42 1006.38 1006.78 1007.50 1008.14 1008.54 1008.74 1008.70 1008.98 1009.14 1009.42 1009.74 1009.82 1009.90 1009.98 1010.54 1011.22 1011.86 1012.02
1014.50 1014.58 1014.66 1014.46 1014.22 1013.98 1013.94 1013.90 1013.78 1013.54 1013.26 1013.02 1012.78 1012.46 1012.14 1011.90 1011.58 1011.30 1011.02 1010.78 1010.42 1010.10 1009.78 1009.62 1009.74 1009.86 1009.98 1010.14 1010.34 1010.62 1010.30 1010.18 1009.74 1009.18 1008.54 1007.98 1007.46 1006.62 1006.02 1005.78 1005.58 1005.46 1005.38 1005.58 1005.70 1005.78 1005.90 1006.50 1007.34 1008.22 1008.66 1008.94 1008.66 1008.82 1009.26 1009.74 1009.98 1010.10 1010.18 1010.26 1010.58 1011.14 1011.46
1014.34 1014.46 1014.34 1014.10 1013.90 1013.74 1013.74 1013.66 1013.46 1013.26 1013.02 1012.78 1012.50 1012.14 1011.82 1011.50 1011.14 1010.78 1010.46 1010.18 1009.86 1009.50 1009.10 1009.02 1009.02 1009.06 1009.18 1009.38 1009.58 1009.90 1009.58 1009.46 1009.18 1008.74 1008.10 1007.46 1007.02 1006.74 1005.86 1005.30 1005.06 1004.82 1004.74 1004.90 1004.86 1005.06 1005.34 1005.82 1006.70 1007.42 1008.10 1008.66 1008.58 1008.78 1009.14 1009.46 1009.78 1010.14 1010.34 1010.22 1010.26 1010.38 1011.02
1014.10 1014.14 1013.94 1013.74 1013.58 1013.38 1013.38 1013.38 1013.22 1012.98 1012.78 1012.46 1012.14 1011.78 1011.38 1011.10 1010.62 1010.22 1009.82 1009.46 1009.06 1008.58 1008.22 1008.26 1008.30 1008.30 1008.34 1008.54 1008.82 1008.94 1008.70 1008.58 1008.34 1008.02 1007.50 1006.94 1006.50 1006.18 1005.86 1005.14 1004.58 1004.38 1004.30 1004.30 1004.30 1004.74 1005.02 1005.38 1006.18 1006.90 1007.70 1008.42 1008.70 1009.22 1010.14 1010.66 1010.06 1010.10 1010.18 1010.30 1010.54 1010.86 1011.34
1013.82 1013.78 1013.62 1013.46 1013.34 1013.22 1013.18 1013.10 1012.90 1012.54 1012.30 1012.02 1011.66 1011.26 1010.86 1010.50 1010.06 1009.66 1009.30 1008.90 1008.46 1007.90 1007.46 1007.34 1007.38 1007.42 1007.46 1007.62 1007.94 1007.74 1007.70 1007.66 1007.42 1007.18 1006.78 1006.38 1006.06 1005.62 1005.22 1004.58 1004.10 1003.86 1003.82 1003.82 1003.94 1004.46 1004.90 1005.22 1005.86 1006.54 1007.26 1008.42 1009.30 1009.74 1010.50 1010.94 1010.78 1010.62 1010.78 1011.10 1011.42 1011.70 1012.06
1013.54 1013.46 1013.26 1013.22 1013.18 1013.14 1013.02 1012.70 1012.26 1011.98 1011.78 1011.38 1010.94 1010.54 1010.18 1009.74 1009.42 1009.10 1008.74 1008.30 1007.94 1007.46 1006.94 1006.62 1006.54 1006.42 1006.50 1006.62 1006.78 1006.74 1006.74 1006.70 1006.50 1006.30 1005.98 1005.82 1005.50 1005.02 1004.50 1004.30 1003.98 1003.58 1003.38 1003.34 1003.74 1004.30 1004.82 1005.14 1005.62 1006.14 1007.06 1008.38 1009.38 1010.02 1010.74 1011.02 1011.30 1011.78 1011.62 1011.94 1012.30 1012.62 1012.90
1013.10 1013.06 1012.98 1012.94 1013.02 1012.98 1012.74 1012.30 1011.78 1011.50 1011.18 1010.82 1010.42 1010.02 1009.70 1009.38 1008.94 1008.54 1008.14 1007.66 1007.26 1006.90 1006.26 1005.78 1005.62 1005.50 1005.50 1005.58 1005.90 1005.94 1005.94 1005.82 1005.62 1005.30 1005.14 1004.94 1004.70 1004.46 1004.02 1003.66 1003.58 1003.38 1003.10 1003.10 1003.74 1004.14 1004.66 1004.82 1005.14 1005.70 1006.58 1007.78 1008.74 1009.62 1010.30 1010.66 1011.26 1011.58 1011.90 1012.26 1012.94 1013.30 1014.02
1012.78 1012.86 1012.78 1012.78 1012.78 1012.70 1012.42 1011.94 1011.54 1011.22 1010.82 1010.54 1010.10 1009.66 1009.38 1009.02 1008.54 1007.86 1007.34 1006.90 1006.50 1006.10 1005.62 1004.98 1004.46 1004.22 1004.42 1004.70 1005.06 1005.14 1005.06 1004.98 1004.62 1004.46 1004.38 1004.10 1003.82 1003.62 1003.46 1002.98 1002.78 1003.06 1003.18 1003.50 1003.78 1004.06 1004.38 1004.54 1004.66 1005.30 1006.18 1006.98 1007.78 1009.10 1009.86 1010.38 1010.98 1011.06 1011.50 1012.14 1013.02 1013.42 1013.86
1012.62 1012.66 1012.58 1012.54 1012.50 1012.50 1012.34 1011.86 1011.34 1011.02 1010.70 1010.26 1009.94 1009.50 1009.10 1008.58 1007.98 1007.22 1006.62 1006.18 1005.90 1005.42 1004.94 1004.38 1003.58 1003.34 1003.50 1003.82 1004.10 1004.46 1004.26 1003.94 1003.74 1003.74 1003.54 1003.42 1003.14 1002.74 1002.46 1002.18 1001.98 1002.34 1002.78 1003.42 1003.86 1004.06 1004.30 1004.46 1004.58 1005.06 1005.70 1006.30 1006.82 1008.18 1009.30 1010.22 1011.14 1011.26 1011.62 1012.38 1013.02 1013.42 1013.94
1012.46 1012.38 1012.30 1012.22 1012.22 1012.46 1012.26 1011.78 1011.38 1010.98 1010.54 1010.06 1009.70 1009.22 1008.74 1008.18 1007.54 1006.78 1006.18 1005.62 1005.30 1004.86 1004.42 1004.10 1003.50 1002.98 1002.82 1002.82 1003.02 1003.30 1003.50 1003.14 1002.90 1002.86 1002.86 1002.42 1002.18 1001.98 1001.78 1001.78 1001.98 1002.54 1002.98 1003.30 1003.82 1004.10 1004.42 1004.62 1004.86 1005.02 1005.50 1006.38 1007.74 1008.74 1009.38 1009.98 1010.58 1011.22 1011.70 1012.26 1012.86 1013.42 1013.98
1012.14 1012.10 1012.06 1011.98 1012.22 1012.50 1012.18 1011.78 1011.34 1010.90 1010.38 1009.86 1009.46 1009.14 1008.46 1007.86 1007.18 1006.30 1005.62 1005.10 1004.74 1004.38 1003.98 1003.54 1003.18 1002.78 1002.34 1002.10 1001.98 1002.14 1002.38 1002.42 1002.26 1002.26 1001.98 1001.62 1001.42 1001.54 1001.54 1001.54 1001.90 1002.58 1003.02 1003.30 1003.82 1004.22 1004.58 1004.90 1005.02 1005.30 1006.26 1007.26 1008.06 1008.82 1009.42 1010.18 1010.70 1011.18 1011.42 1011.98 1012.54 1013.30 1013.98
1011.82 1011.86 1011.82 1011.90 1012.14 1012.22 1012.06 1011.74 1011.38 1010.86 1010.34 1009.86 1009.34 1008.90 1008.26 1007.50 1006.82 1006.06 1005.42 1004.74 1004.22 1003.86 1003.46 1003.06 1002.54 1002.18 1001.66 1001.30 1001.06 1001.10 1001.34 1001.62 1001.62 1001.54 1001.46 1001.18 1001.06 1001.10 1001.18 1001.30 1002.14 1002.78 1003.14 1003.62 1004.14 1004.54 1004.86 1005.02 1005.42 1006.26 1006.86 1007.66 1008.22 1008.70 1009.38 1010.10 1010.38 1010.74 1011.10 1011.74 1012.46 1013.26 1013.94
Wind_Speed
3 2 2 3 3 4 6 7 6 6 6 6 6 6 7 7 7 7 8 8 8 8 7 7 9 9 9 8 8 9 8 9 10 11 10 7 7 7 10 12 13 12 11 8 8 8 6 8 9 10 11 12 12 12 12 10 10 9 8 8 9 10 10
1 1 1 1 3 4 6 6 7 7 6 5 6 6 7 7 7 7 7 8 9 8 7 8 8 9 12 12 10 11 10 9 9 11 10 9 6 7 8 11 12 12 12 12 10 9 8 9 9 9 10 9 10 11 11 10 10 9 9 9 9 9 9
2 1 1 2 2 3 4 6 6 6 6 6 6 6 7 7 8 7 7 8 8 9 8 9 9 10 10 10 12 12 13 14 10 8 11 10 10 8 7 6 8 11 12 13 12 11 12 13 12 8 10 11 12 11 10 11 12 10 10 9 9 9 9
1 1 1 1 2 3 4 5 6 6 6 6 6 6 6 7 7 8 7 7 7 8 9 10 10 10 9 10 11 12 13 14 11 11 10 11 9 7 8 7 7 9 13 14 12 13 12 12 11 10 9 11 11 10 11 12 11 12 11 10 9 9 9
0 1 2 2 2 3 3 4 4 5 5 6 6 6 6 6 6 7 8 8 8 8 9 9 9 9 9 10 10 10 11 14 13 12 11 13 13 10 11 9 9 8 11 14 12 11 12 12 10 11 10 9 10 10 9 11 12 12 12 11 10 10 10
1 2 2 2 2 3 3 3 4 5 5 5 5 6 6 8 7 7 7 7 7 8 8 9 10 11 11 10 10 12 13 12 13 14 14 15 14 13 11 10 9 9 10 12 14 12 11 11 11 11 12 10 9 8 9 11 10 11 11 11 10 10 10
2 2 2 2 3 3 3 4 4 4 5 5 6 7 7 8 8 8 8 9 9 10 10 10 11 12 12 11 11 12 13 13 12 15 15 16 15 17 14 11 11 11 12 12 13 11 14 12 13 12 11 11 10 9 8 10 10 10 11 10 10 10 9
2 3 3 2 3 3 3 4 5 5 5 5 5 6 7 8 9 9 10 10 10 10 11 11 11 11 12 12 11 12 11 11 12 13 15 18 16 18 15 13 12 11 12 12 11 13 13 13 13 12 11 12 9 10 10 10 10 13 10 8 7 5 7
3 3 3 3 3 4 4 5 5 6 6 6 6 6 8 8 9 10 10 10 11 10 11 11 11 11 12 12 12 12 13 10 11 14 14 16 18 18 18 15 12 13 12 12 11 12 14 13 11 12 12 12 13 12 11 11 11 12 14 12 11 10 9
4 4 4 4 5 5 5 5 5 6 6 7 7 6 8 8 9 10 10 10 10 10 11 12 12 12 12 12 12 14 14 13 12 13 12 14 14 15 17 19 16 13 12 12 12 10 10 12 12 13 14 14 12 13 11 12 12 11 14 14 11 13 12
4 5 5 5 5 5 5 5 6 6 6 6 6 7 8 10 10 11 11 12 11 11 12 12 12 13 13 12 13 14 15 15 14 12 12 12 14 14 15 17 18 16 15 13 14 13 10 8 9 11 15 14 13 13 11 12 12 11 10 12 11 11 14
5 5 5 5 5 6 7 6 7 7 7 8 8 9 9 10 11 11 11 12 11 12 12 12 12 12 12 11 12 12 14 15 15 15 12 13 13 15 15 18 19 18 18 16 14 13 13 11 10 11 12 17 14 14 13 11 12 10 11 12 12 12 14
4 5 5 5 5 6 7 7 8 9 10 9 10 11 10 11 12 12 11 12 12 12 12 12 12 12 13 12 12 12 13 15 17 17 16 14 13 15 17 18 18 17 17 16 15 13 13 12 10 9 8 12 15 14 12 11 12 11 12 11 12 12 15
5 6 6 6 7 7 8 9 9 10 10 11 11 12 12 12 12 12 13 13 13 13 13 13 11 12 12 13 13 14 14 15 17 16 17 18 16 15 16 17 18 17 17 16 17 16 15 13 12 9 10 11 15 14 15 12 12 13 8 9 10 11 13
5 6 6 7 8 9 10 10 10 10 11 11 12 13 13 12 11 12 13 14 14 14 15 15 15 13 13 13 14 12 14 16 16 17 17 20 20 16 15 18 20 19 20 21 17 18 16 14 12 13 11 10 14 15 15 14 14 14 8 8 9 10 11
5 6 7 8 9 9 10 11 10 11 11 11 11 12 13 13 13 13 13 14 14 15 15 15 14 14 14 14 14 14 14 15 16 16 17 20 20 20 18 17 18 18 14 15 18 16 15 14 13 12 12 11 14 14 13 16 14 14 11 11 11 11 11
6 7 8 8 10 12 11 11 11 12 13 12 12 12 14 14 15 14 15 16 16 16 16 16 15 15 16 16 15 16 15 15 16 16 17 18 19 21 21 19 18 18 17 17 19 18 19 17 15 13 15 15 16 10 13 13 15 13 12 13 13 11 12
6 7 8 9 13 12 13 12 12 13 12 11 12 12 12 14 14 15 15 16 17 17 16 17 17 17 16 15 16 15 16 16 16 17 17 18 18 20 21 21 19 19 18 18 15 15 17 19 17 15 13 10 12 14 11 13 14 14 11 13 12 11 11
6 8 10 11 12 13 13 13 13 13 12 12 12 12 13 14 15 17 16 16 17 18 18 18 18 18 17 16 16 16 16 17 17 17 17 18 19 19 19 21 20 19 20 19 17 14 14 19 20 20 17 15 13 12 12 14 10 15 15 12 13 12 11
7 8 10 11 11 12 13 14 14 14 14 14 14 14 14 14 15 17 18 18 18 18 19 19 19 18 17 17 17 17 17 18 18 17 17 19 20 20 20 20 21 20 20 20 20 19 18 20 21 20 15 12 12 14 11 12 16 17 13 13 12 13 13
7 8 9 11 12 12 13 13 14 15 15 16 15 15 16 17 17 16 17 18 18 17 18 19 19 19 18 16 16 17 17 17 18 18 19 19 19 20 20 21 21 21 20 20 19 18 16 13 16 18 13 14 15 18 11 11 14 14 15 14 12 12 12
7 9 10 11 11 12 13 14 15 15 15 16 15 16 17 17 18 19 19 19 20 19 18 18 17 17 17 17 17 16 17 18 18 18 19 19 20 21 20 20 20 21 20 19 19 17 17 15 15 18 13 13 16 16 10 9 7 12 13 14 11 11 12
8 9 8 10 12 13 14 15 15 16 16 16 16 16 17 17 18 19 20 20 19 18 18 17 19 20 19 15 15 15 15 16 17 18 18 19 20 21 21 20 18 22 21 19 17 18 20 20 16 14 13 12 15 14 11 12 11 11 14 13 13 13 13
8 8 8 10 12 13 15 14 15 16 16 16 17 17 16 18 18 18 19 19 19 18 18 17 20 18 19 20 18 17 15 16 17 18 19 19 19 20 20 21 20 20 18 19 15 18 20 21 23 23 18 19 16 14 12 13 12 13 13 14 12 13 13
7 8 9 11 12 13 14 15 15 16 16 17 16 15 16 18 18 18 17 19 19 19 19 20 19 19 19 19 19 18 18 17 16 16 18 19 18 18 19 19 18 17 18 20 20 15 18 21 20 21 22 21 18 18 14 11 12 14 15 14 13 14 13
8 9 9 11 12 13 14 15 15 15 16 16 16 17 18 18 18 18 18 20 20 20 20 20 20 20 21 20 20 19 17 19 19 19 18 17 18 19 18 17 17 17 16 19 17 21 16 17 18 19 21 26 24 18 16 16 12 10 11 13 13 13 14
9 9 9 11 12 14 14 15 15 15 15 16 16 17 18 19 19 19 18 19 20 20 21 20 20 20 20 21 21 19 18 20 20 21 21 19 17 18 20 18 18 17 18 17 19 21 21 20 14 14 14 11 11 16 15 15 14 13 10 9 10 13 12
8 9 10 12 13 14 15 15 16 15 15 16 17 17 17 17 17 17 18 19 19 19 17 19 20 20 20 21 21 20 18 19 19 21 21 21 19 18 19 19 19 18 18 19 17 19 21 20 15 12 12 12 13 14 12 9 9 8 7 6 11 12 10
8 9 11 12 14 15 15 16 17 16 14 15 15 16 16 16 18 19 19 20 20 21 20 21 20 21 21 20 22 16 17 20 20 20 21 21 20 18 18 19 20 20 19 19 19 19 19 17 17 14 12 8 6 7 6 6 8 9 3 4 5 6 7
9 10 12 13 14 15 16 17 16 14 14 15 15 16 16 16 17 18 19 20 21 20 21 21 21 22 21 22 19 16 17 17 19 20 21 21 20 19 19 20 19 18 19 20 16 17 17 17 17 14 15 13 8 6 6 6 11 15 15 16 17 17 17
10 11 12 13 14 14 15 15 16 14 14 16 17 17 17 17 18 18 19 21 19 20 19 20 21 22 23 23 20 17 16 17 18 19 19 19 19 18 21 24 21 21 20 20 15 19 18 17 17 15 14 13 11 9 7 7 7 9 17 19 18 18 18
9 11 13 13 13 14 15 17 17 16 16 16 17 16 16 16 17 18 18 18 23 22 19 20 22 23 24 24 20 15 17 15 17 18 17 18 19 18 18 20 22 20 19 14 18 20 21 19 16 14 15 15 13 12 10 11 11 11 8 10 11 13 12
9 10 12 13 13 14 15 17 18 17 17 15 16 16 16 17 19 16 16 18 18 18 18 19 20 23 24 23 22 16 15 15 16 18 18 16 16 17 18 19 16 19 21 10 19 20 22 20 15 14 14 14 14 12 11 10 9 12 11 11 11 10 11
10 11 11 12 12 13 15 16 17 17 17 16 17 17 19 18 16 16 15 16 17 16 15 17 18 19 20 22 24 22 15 16 16 16 16 16 16 16 17 17 14 16 19 17 20 21 20 19 15 14 14 13 13 14 14 10 14 16 14 12 11 11 11
9 9 11 12 13 13 15 16 15 17 16 16 18 19 19 16 15 15 15 16 16 16 15 18 16 17 17 21 24 27 17 16 16 16 16 16 16 16 16 12 10 10 16 18 19 20 19 18 16 12 14 15 20 22 15 13 13 13 13 12 13 11 11
9 9 11 12 12 12 14 15 16 17 17 18 18 19 18 16 15 15 15 15 14 13 12 13 15 14 18 19 22 25 26 20 19 16 15 15 14 11 10 11 8 15 16 17 17 17 17 17 15 10 20 22 22 22 18 12 11 12 12 13 13 12 10
8 9 11 12 12 13 13 14 15 15 16 16 16 17 17 16 14 14 15 15 14 12 10 11 12 15 16 19 21 23 25 25 21 16 15 12 12 12 10 11 9 16 16 16 16 15 15 15 11 20 22 23 24 20 13 12 11 12 12 12 13 12 10
Wind_Direction
17 3 348 335 333 316 320 317 314 310 310 309 307 304 300 289 285 288 284 276 268 262 261 255 243 239 240 227 213 214 209 199 190 198 212 218 198 221 243 237 238 253 254 260 252 241 240 236 208 230 237 226 223 222 225 220 217 204 201 209 209 201 203
18 10 348 335 332 334 313 315 311 309 302 299 299 300 302 298 290 280 283 279 271 263 264 260 260 257 246 239 219 209 212 212 202 198 207 211 205 212 223 234 238 241 244 246 252 250 251 245 239 220 221 219 225 222 220 219 218 212 206 208 221 207 194
358 346 342 360 318 327 313 311 312 308 307 305 300 301 301 306 304 295 283 278 273 271 270 268 267 257 260 255 238 226 213 212 211 204 207 210 212 210 216 232 224 234 243 243 237 241 251 254 257 232 187 199 203 209 210 210 214 207 205 205 211 216 191
1 320 314 325 330 315 316 313 308 309 308 302 300 296 295 296 298 296 287 277 277 273 267 267 260 259 258 253 249 237 229 221 207 204 207 215 216 215 216 221 226 230 238 235 237 234 237 241 230 255 219 207 208 207 203 206 209 210 208 204 203 212 198
277 271 310 309 301 299 289 291 297 301 300 299 296 293 292 294 295 293 297 293 277 269 266 260 262 264 262 261 252 242 231 225 216 206 205 210 209 208 216 215 219 224 242 246 242 240 235 241 245 235 234 223 214 212 191 194 204 210 205 201 200 201 198
203 263 262 265 271 268 274 287 293 289 293 294 301 295 292 290 288 285 284 288 287 279 273 269 262 261 265 267 263 250 237 226 220 209 210 211 203 204 208 213 216 221 234 247 247 243 234 237 235 238 236 224 224 211 182 176 200 209 202 207 196 195 193
207 226 256 254 262 265 274 274 281 284 286 283 286 286 285 285 281 279 280 279 282 283 281 274 269 267 263 261 257 256 249 239 230 222 216 209 207 206 206 205 211 213 223 232 239 238 239 232 230 231 236 235 217 222 202 192 199 199 196 199 192 197 186
198 223 233 255 258 269 270 273 272 271 267 271 273 278 282 280 280 278 278 277 275 278 279 275 269 265 261 257 257 256 258 247 236 231 227 220 212 209 208 209 211 217 221 223 233 238 239 233 231 227 226 234 215 221 227 202 201 204 189 182 196 195 166
215 225 236 227 247 260 267 268 270 268 267 269 269 269 269 268 270 274 274 272 273 271 269 268 269 266 260 257 253 252 251 249 245 232 228 227 222 213 210 207 210 215 217 219 226 233 234 237 236 232 224 229 232 214 221 227 211 209 196 192 195 195 178
212 227 234 237 250 256 262 264 267 272 274 268 269 270 270 267 264 266 269 272 274 274 271 271 268 264 266 259 253 250 248 248 245 244 236 234 228 218 215 211 215 213 216 217 223 230 233 237 242 239 231 225 227 237 216 219 221 219 196 195 192 200 193
217 225 232 242 243 253 254 262 264 265 266 275 276 276 277 274 271 266 266 267 267 268 268 268 270 274 266 259 258 253 248 244 245 246 243 229 223 224 222 219 216 214 211 214 216 218 227 233 238 250 240 226 225 230 235 230 218 210 213 168 183 196 199
215 226 232 238 248 255 261 265 271 276 281 279 275 275 275 272 270 270 268 267 266 264 264 263 262 264 268 265 260 257 249 245 242 241 241 242 233 222 221 221 218 219 213 212 213 213 221 226 228 230 246 240 220 223 229 235 239 201 202 184 204 159 166
221 227 234 238 247 255 264 270 275 278 279 281 279 280 276 274 272 272 269 267 265 263 263 263 262 262 261 258 257 256 250 246 244 240 238 238 240 235 229 226 220 217 215 215 209 209 212 219 221 229 242 254 234 219 225 233 234 230 187 181 196 158 157
232 238 244 246 253 259 267 276 275 278 281 277 279 278 276 273 271 272 272 269 265 263 261 260 259 259 258 261 258 254 256 254 249 245 240 239 239 240 235 232 231 228 219 216 213 209 211 212 214 219 229 238 240 223 222 217 227 232 198 200 200 150 154
244 250 249 253 258 266 277 276 275 274 275 275 276 278 277 277 274 267 265 269 269 264 261 259 258 258 258 261 263 260 254 250 252 251 247 241 239 240 237 239 236 234 226 223 217 213 209 207 208 217 229 242 248 232 219 221 217 228 184 181 186 152 150
253 255 256 260 266 274 278 275 271 270 269 271 271 272 275 275 273 272 271 268 265 263 261 260 259 257 255 254 257 261 259 253 248 249 248 245 241 238 240 238 237 233 232 231 223 216 205 203 206 209 221 232 239 230 227 223 221 219 170 174 166 159 161
260 263 266 269 274 283 281 280 278 275 273 275 275 271 272 271 271 270 269 266 264 263 261 257 255 254 255 253 253 254 258 259 254 247 247 248 245 242 238 241 239 234 228 227 227 221 216 204 202 204 214 217 231 214 220 218 225 230 186 183 183 172 165
266 269 272 278 286 287 283 282 281 280 281 273 269 270 267 269 269 268 268 266 264 263 261 259 256 254 252 252 252 252 252 253 253 252 248 247 250 249 242 238 241 240 233 227 222 222 223 210 205 208 208 206 225 219 209 211 211 218 178 194 175 166 155
272 279 285 289 287 285 287 285 286 284 275 268 267 268 270 271 270 267 266 266 264 263 261 260 259 257 254 251 251 251 251 251 249 249 250 247 245 245 244 241 240 238 237 232 223 216 223 223 213 208 202 205 222 226 214 209 201 221 190 176 165 150 160
281 288 290 289 289 288 287 288 287 284 282 278 274 271 270 270 268 268 267 265 262 261 261 259 258 255 252 249 248 249 248 248 248 246 245 245 241 244 244 242 239 238 238 235 232 224 218 222 220 210 196 193 208 230 215 212 209 213 189 171 167 159 155
288 289 290 290 290 291 291 289 287 286 285 283 281 278 276 273 269 267 268 265 263 261 260 259 256 254 251 248 246 245 245 245 247 247 244 241 239 239 241 242 240 237 237 237 233 222 211 220 218 212 199 194 205 218 211 212 218 208 199 180 169 165 159
289 293 290 294 295 293 291 290 289 287 285 284 281 279 277 275 273 271 269 266 265 263 261 257 255 251 249 246 244 244 243 243 244 246 246 242 238 236 238 239 238 237 237 239 230 222 218 205 218 218 195 188 201 219 203 199 223 213 190 181 166 161 157
288 290 299 297 296 294 293 292 291 289 288 286 284 282 279 275 272 270 270 269 265 263 259 256 252 246 244 247 245 244 242 242 242 243 244 243 238 235 236 237 237 236 240 240 227 206 209 212 220 230 197 190 199 213 200 197 200 197 185 181 167 162 163
295 298 298 292 293 298 298 297 296 294 293 290 287 285 281 280 276 272 269 267 265 261 258 255 253 246 239 234 241 248 248 245 241 240 242 241 239 235 232 233 236 231 230 238 229 208 202 206 207 217 217 202 191 194 200 195 194 193 198 196 164 166 169
298 296 292 296 302 302 302 301 300 297 295 293 290 288 284 281 279 277 271 267 264 261 260 257 254 250 243 236 229 238 244 248 247 243 240 240 239 237 233 232 232 232 229 229 232 207 203 202 202 204 201 207 200 195 200 198 192 192 191 192 169 177 176
297 297 301 304 305 308 308 308 306 304 299 296 294 289 286 283 280 278 274 271 266 263 261 256 250 247 243 237 230 227 240 241 243 247 247 247 242 236 233 231 232 228 229 225 227 228 209 202 201 202 204 195 197 192 200 210 211 192 178 180 165 174 182
302 302 302 305 309 312 314 312 309 303 300 297 292 289 285 282 279 277 273 271 269 267 263 261 253 246 242 238 231 224 235 238 241 243 243 244 249 245 233 232 230 227 227 223 222 224 223 215 193 194 201 204 195 190 187 190 204 202 198 190 162 174 177
304 303 302 305 310 313 317 316 312 307 302 297 293 289 286 281 276 273 272 269 269 266 263 258 252 248 242 235 231 223 232 235 238 240 241 243 244 250 246 234 233 232 228 223 221 219 219 216 200 182 193 190 199 197 198 191 191 193 197 205 197 190 161
302 301 304 307 310 314 319 320 316 310 299 293 289 285 282 277 275 274 272 272 270 269 265 256 250 247 241 234 227 224 228 233 235 237 238 237 241 241 247 243 233 232 231 227 221 208 215 215 206 177 176 165 109 81 63 34 68 66 100 128 132 91 110
304 302 307 310 313 318 320 319 314 307 299 298 294 292 288 284 281 278 276 273 273 271 270 262 252 245 238 230 224 225 228 231 234 235 235 237 237 240 237 239 235 232 230 229 214 184 190 196 205 176 170 150 133 107 94 65 62 81 86 84 88 98 106
302 303 308 312 318 319 318 315 315 312 306 304 300 298 294 290 286 281 277 276 273 272 269 264 256 245 235 227 220 226 228 230 233 233 233 233 234 235 236 239 243 234 231 229 187 169 163 173 196 175 150 138 137 127 124 119 100 80 83 84 87 93 103
305 306 310 316 320 318 317 319 318 315 311 308 303 300 298 293 289 284 278 275 273 270 269 265 254 246 237 229 222 222 228 231 231 231 229 229 227 231 234 236 232 235 236 223 159 168 165 176 193 163 153 150 150 151 153 145 130 125 116 102 97 97 91
307 310 313 318 319 318 319 319 319 317 315 312 306 303 300 298 293 286 282 279 279 275 271 269 262 244 235 231 222 222 226 228 227 228 228 227 225 224 229 231 221 214 233 193 163 164 171 173 180 157 154 161 157 154 147 137 131 126 116 111 113 111 111
318 315 314 318 319 318 317 318 320 321 318 313 310 308 306 303 295 290 288 287 284 280 274 273 272 250 235 229 223 220 229 228 226 223 225 223 225 225 222 225 227 197 196 165 168 166 170 174 164 161 160 167 166 138 136 123 129 127 120 118 114 114 115
319 315 319 320 322 320 316 318 320 320 317 314 315 314 313 308 300 295 294 292 291 286 280 273 269 271 250 227 221 218 221 228 221 219 220 225 222 224 225 223 224 161 155 160 168 170 170 171 158 164 170 140 121 130 134 132 133 129 124 122 121 119 127
321 322 322 325 324 318 315 320 322 322 321 321 321 322 318 313 303 301 302 298 299 292 285 281 270 266 262 251 232 218 215 220 213 213 221 226 223 216 213 214 180 143 151 154 162 167 169 162 163 131 122 130 135 130 127 133 132 130 127 125 128 129 132
324 323 326 328 326 320 318 322 322 326 327 327 328 326 325 321 313 309 308 306 304 298 287 286 280 270 265 253 242 222 210 211 212 210 219 229 222 212 194 198 142 143 140 143 142 148 151 152 128 127 132 133 134 134 130 133 134 133 128 125 126 131 132